DELTA 1 DEB, 7176

Orbit data source: Space-Track

DELTA 1 DEB, 7176 is space debris in SSO originally from a launch on Tue, 06 Nov 1973 UTC launched from the Air Force Western Test Range (AFWTR). Debris objects in space refer to the collection of defunct objects orbiting the Earth. Examples of debris include non-operational satellites, rocket bodies, and fragments generated from explosions, collisions, or faulty payload assembly.

Loading next visibility...
Identifier
7176, 1973-086EN
Orbit
SSO
Country
Flag of USUS
Related business
Manufacturer
Unknown
Mission
Spacecraft
Bus & Motor
Unknown
Mass
Unknown
Launch date (UTC)
1973-11-06 (52 years ago)
Launch vehicle
Unknown
Launch site
Air Force Western Test Range (AFWTR)
Object type
Payload
Rocket body
Debris
Shape & HBR
Unknown shape, 0.1 m
Radar Cross Section
Small (<0.1 m²)

Expand to show TLE details & history
Last TLE update: 20 hours ago

TLE from 20 hours ago
0 DELTA 1 DEB
1 07176U 73086EN  25346.72913220  .00000116  00000-0  72808-3 0  9997
2 07176 102.2196 258.3999 0177335  12.9644  42.4460 12.75714251423825
Epoch: 2025-12-12T17:29Z
TLE epoch observation values (Epoch: 2025-12-12T17:29:57.022Z)
Latitude
54.96749°
Longitude
-103.65439°
Altitude
1,267.501 km
Speed
7.274 km/s
True Right ascension
16h 01m 59s
True Declination
54° 48' 59"
Sunlit
Object was in daylight at epoch
Visualization orbit readout
Latitude
Unknown
Longitude
Unknown
Altitude
Unknown
Speed
Unknown
Apparent Right ascension
Unknown
Apparent Declination
Unknown
Sunlit
N/A
Visualization observer readout
Local Sidereal Time
12:02:39
Azimuth
Unknown
Elevation
Unknown
Doppler factor
Unknown
Orbital elements
Apogee altitude
1,493.449 km
Perigee altitude
1,219.132 km
Semi-major axis
7,734.427 km
Eccentricity
0.01773
Inclination
102.2196°
RAAN
258.3999°
Arg. of periapsis
12.9644°
True anomaly
43.84011°
Mean anomaly
42.446°
Eccentric anomaly
43.14077°
Mean motion
3.19081 °/min
Orbital period
112.82 mins
BSTAR
0.00072808
Loading maneuver chart data...
Computing Atmospheric mass density...
Loading historical data...
Loading historical data...
Loading historical data...
Loading historical data...
Loading historical data...
Loading historical data...
Loading historical data...

Documentation

Showing up to 5 results
|